When you browse on this site, cookies collect data to enhance your experience and personalize the content and advertising you see.
Visit our Privacy Policy to learn more. By continuing to use the site, you agree to this use of cookies and data.
  • In Lithuania
  • List of Countries
  • For 7 days
  • Water Temperature
  • Weather Map
  • Weather Widgets
  • user-avatar
    Login

    Hourly Weather Chrapczew

    Today, 27 January, Monday

    Time Temperature Precipitation Wind Pressure Humidity
    00:00 -1°C° 0 mm 2 mps 751 mmHg 69%
    01:00 -1°C° 0 mm 2 mps 751 mmHg 70%
    02:00 -1°C° 0 mm 2 mps 751 mmHg 70%
    03:00 +1°C° 0 mm 2 mps 750 mmHg 71%
    04:00 +1°C° 0 mm 2 mps 750 mmHg 71%
    05:00 +1°C° 0 mm 2 mps 750 mmHg 71%
    06:00 +1°C° 0 mm 2 mps 750 mmHg 72%
    07:00 0°C° 0 mm 3 mps 750 mmHg 72%
    08:00 +1°C° 0 mm 3 mps 750 mmHg 71%
    09:00 +1°C° 0 mm 3 mps 750 mmHg 70%
    10:00 +2°C° 0 mm 3 mps 749 mmHg 70%
    11:00 +2°C° 0 mm 3 mps 749 mmHg 73%
    12:00 +2°C° 0 mm 3 mps 749 mmHg 77%
    13:00 +2°C° 0 mm 3 mps 748 mmHg 81%
    14:00 +2°C° 0 mm 3 mps 748 mmHg 82%
    15:00 +2°C° 0 mm 3 mps 748 mmHg 83%
    16:00 +2°C° 0 mm 3 mps 748 mmHg 83%
    17:00 +2°C° 0 mm 3 mps 747 mmHg 85%
    18:00 +1°C° 0 mm 3 mps 747 mmHg 86%
    19:00 +1°C° 0 mm 3 mps 747 mmHg 87%
    20:00 0°C° 0 mm 4 mps 746 mmHg 88%
    21:00 -1°C° 0 mm 4 mps 746 mmHg 89%
    22:00 -1°C° 0 mm 4 mps 746 mmHg 90%
    23:00 -1°C° 0 mm 4 mps 745 mmHg 89%

    Tomorrow, 28 January, Tuesday

    Time Temperature Precipitation Wind Pressure Humidity
    00:00 -1°C° 0 mm 4 mps 745 mmHg 89%
    01:00 -1°C° 0 mm 4 mps 744 mmHg 89%
    02:00 -1°C° 0 mm 4 mps 743 mmHg 88%
    03:00 -1°C° 0 mm 4 mps 743 mmHg 88%
    04:00 -1°C° 0 mm 4 mps 742 mmHg 88%
    05:00 0°C° 0 mm 5 mps 741 mmHg 87%
    06:00 0°C° 0 mm 5 mps 741 mmHg 86%
    07:00 +1°C° 0 mm 5 mps 740 mmHg 85%
    08:00 +1°C° 0 mm 6 mps 740 mmHg 81%
    09:00 +2°C° 0 mm 6 mps 739 mmHg 78%
    10:00 +2°C° 0 mm 7 mps 738 mmHg 75%
    11:00 +3°C° 0.1 mm 7 mps 738 mmHg 74%
    12:00 +3°C° 0.1 mm 7 mps 737 mmHg 72%
    13:00 +4°C° 0.1 mm 7 mps 737 mmHg 71%
    14:00 +4°C° 0 mm 6 mps 736 mmHg 72%
    15:00 +3°C° 0 mm 5 mps 736 mmHg 74%
    16:00 +4°C° 0 mm 4 mps 735 mmHg 75%
    17:00 +3°C° 0 mm 5 mps 735 mmHg 76%
    18:00 +3°C° 0 mm 5 mps 735 mmHg 78%
    19:00 +2°C° 0 mm 6 mps 735 mmHg 79%
    20:00 +2°C° 0 mm 7 mps 735 mmHg 79%
    21:00 0°C° 0 mm 7 mps 735 mmHg 80%
    22:00 0°C° 0 mm 8 mps 735 mmHg 81%
    23:00 0°C° 0 mm 8 mps 736 mmHg 78%

    Day after tomorrow, 29 January, Wednesday

    Time Temperature Precipitation Wind Pressure Humidity
    00:00 0°C° 0 mm 7 mps 736 mmHg 74%
    01:00 0°C° 0 mm 7 mps 736 mmHg 71%
    02:00 -1°C° 0 mm 7 mps 736 mmHg 70%
    03:00 -1°C° 0 mm 6 mps 736 mmHg 69%
    04:00 -2°C° 0 mm 6 mps 737 mmHg 68%
    05:00 -1°C° 0 mm 5 mps 737 mmHg 71%
    06:00 -2°C° 0 mm 5 mps 737 mmHg 73%
    07:00 -2°C° 0 mm 5 mps 736 mmHg 75%
    08:00 -1°C° 0 mm 5 mps 737 mmHg 73%
    09:00 -1°C° 0 mm 6 mps 737 mmHg 71%
    10:00 +1°C° 0 mm 6 mps 737 mmHg 68%
    11:00 +1°C° 0 mm 6 mps 737 mmHg 69%
    12:00 +1°C° 0 mm 6 mps 737 mmHg 70%
    13:00 +1°C° 0 mm 6 mps 737 mmHg 70%
    14:00 +1°C° 0 mm 6 mps 737 mmHg 75%
    15:00 +1°C° 0 mm 6 mps 737 mmHg 80%
    16:00 -1°C° 0 mm 7 mps 737 mmHg 84%
    17:00 -1°C° 0.1 mm 7 mps 737 mmHg 88%
    18:00 -1°C° 0.1 mm 7 mps 737 mmHg 91%
    19:00 -1°C° 0.1 mm 7 mps 737 mmHg 95%
    20:00 -1°C° 0.5 mm 7 mps 738 mmHg 95%
    21:00 -2°C° 0.5 mm 7 mps 738 mmHg 95%
    22:00 -2°C° 0.5 mm 7 mps 738 mmHg 95%
    23:00 -2°C° 1.1 mm 7 mps 739 mmHg 95%

    30 January, Thursday

    Time Temperature Precipitation Wind Pressure Humidity
    00:00 -1°C° 1.1 mm 8 mps 739 mmHg 95%
    01:00 -1°C° 1.1 mm 8 mps 740 mmHg 95%
    02:00 -1°C° 0.8 mm 9 mps 740 mmHg 94%
    03:00 -1°C° 0.8 mm 9 mps 741 mmHg 94%
    04:00 0°C° 0.8 mm 9 mps 742 mmHg 93%
    05:00 0°C° 0.2 mm 9 mps 742 mmHg 90%
    06:00 0°C° 0.2 mm 9 mps 743 mmHg 88%
    07:00 0°C° 0.2 mm 8 mps 744 mmHg 85%
    08:00 0°C° 0.1 mm 9 mps 744 mmHg 84%
    09:00 0°C° 0.1 mm 9 mps 745 mmHg 82%
    10:00 0°C° 0.1 mm 9 mps 746 mmHg 81%
    11:00 0°C° 0.1 mm 8 mps 746 mmHg 78%
    12:00 0°C° 0.1 mm 8 mps 746 mmHg 76%
    13:00 +1°C° 0.1 mm 8 mps 747 mmHg 74%
    14:00 0°C° 0 mm 7 mps 746 mmHg 78%
    15:00 0°C° 0 mm 7 mps 746 mmHg 83%
    16:00 -1°C° 0 mm 6 mps 746 mmHg 88%
    17:00 -1°C° 0.1 mm 6 mps 746 mmHg 90%
    18:00 -1°C° 0.1 mm 7 mps 746 mmHg 92%
    19:00 -1°C° 0.1 mm 7 mps 746 mmHg 95%
    20:00 -1°C° 0 mm 6 mps 746 mmHg 92%
    21:00 -1°C° 0 mm 6 mps 746 mmHg 89%
    22:00 +1°C° 0 mm 6 mps 746 mmHg 85%
    23:00 0°C° 0 mm 5 mps 745 mmHg 85%

    31 January, Friday

    Time Temperature Precipitation Wind Pressure Humidity
    00:00 0°C° 0 mm 5 mps 745 mmHg 85%
    01:00 -1°C° 0 mm 4 mps 745 mmHg 85%
    02:00 -1°C° 0 mm 4 mps 745 mmHg 85%
    03:00 -1°C° 0 mm 4 mps 744 mmHg 84%
    04:00 -1°C° 0 mm 4 mps 744 mmHg 83%
    05:00 -1°C° 0 mm 4 mps 744 mmHg 82%
    06:00 -1°C° 0 mm 4 mps 743 mmHg 80%
    07:00 -1°C° 0 mm 4 mps 743 mmHg 78%
    08:00 0°C° 0 mm 4 mps 743 mmHg 74%
    09:00 0°C° 0 mm 4 mps 743 mmHg 69%
    10:00 +1°C° 0 mm 5 mps 742 mmHg 64%
    11:00 +1°C° 0.1 mm 4 mps 742 mmHg 69%
    12:00 +1°C° 0.1 mm 4 mps 742 mmHg 73%
    13:00 +1°C° 0.1 mm 4 mps 741 mmHg 78%
    14:00 +2°C° 0.2 mm 3 mps 742 mmHg 83%
    15:00 +2°C° 0.2 mm 3 mps 742 mmHg 88%
    16:00 +3°C° 0.2 mm 2 mps 742 mmHg 93%
    17:00 +2°C° 0 mm 3 mps 743 mmHg 94%
    18:00 +2°C° 0 mm 3 mps 743 mmHg 95%
    19:00 +2°C° 0 mm 3 mps 744 mmHg 96%
    20:00 +3°C° 0 mm 3 mps 744 mmHg 96%
    21:00 +3°C° 0 mm 3 mps 745 mmHg 96%
    22:00 +3°C° 0 mm 4 mps 745 mmHg 96%
    23:00 +3°C° 0 mm 4 mps 746 mmHg 94%

    1 February, Saturday

    Time Temperature Precipitation Wind Pressure Humidity
    00:00 +4°C° 0 mm 4 mps 746 mmHg 93%
    01:00 +3°C° 0 mm 5 mps 746 mmHg 91%
    02:00 +3°C° 0 mm 5 mps 746 mmHg 91%
    03:00 +4°C° 0 mm 4 mps 746 mmHg 90%
    04:00 +4°C° 0 mm 4 mps 746 mmHg 89%
    05:00 +3°C° 0.2 mm 5 mps 746 mmHg 89%
    06:00 +3°C° 0.2 mm 5 mps 746 mmHg 90%
    07:00 +3°C° 0.2 mm 6 mps 745 mmHg 90%
    08:00 +3°C° 0.2 mm 6 mps 745 mmHg 90%
    09:00 +3°C° 0.2 mm 6 mps 745 mmHg 89%
    10:00 +4°C° 0.2 mm 6 mps 745 mmHg 89%
    11:00 +4°C° 0.4 mm 6 mps 745 mmHg 90%
    12:00 +4°C° 0.4 mm 6 mps 745 mmHg 91%
    13:00 +4°C° 0.4 mm 6 mps 745 mmHg 91%
    14:00 +6°C° 0 mm 5 mps 745 mmHg 91%
    15:00 +6°C° 0 mm 4 mps 744 mmHg 91%
    16:00 +6°C° 0 mm 4 mps 744 mmHg 91%
    17:00 +6°C° 0 mm 4 mps 744 mmHg 91%
    18:00 +6°C° 0 mm 4 mps 744 mmHg 91%
    19:00 +6°C° 0 mm 5 mps 744 mmHg 91%
    20:00 +7°C° 0.1 mm 5 mps 744 mmHg 90%
    21:00 +7°C° 0.1 mm 5 mps 744 mmHg 89%
    22:00 +7°C° 0.1 mm 6 mps 743 mmHg 88%
    23:00 +7°C° 1.2 mm 6 mps 743 mmHg 89%
    Show more